Location: Shenandoah County Park
(38.9356°N, 78.4524°W)
Time: 13:55:45
(UTC-04:00)

Envisat - Pass Details

Date: 31 May 2024
Orbit: 762 x 764 km, 98.3° (Epoch: 14 June)

Event Time Altitude Azimuth Distance (km) Brightness Sun altitude
Rises 04:12:17 0° 17° (NNE) 3,233 7.4 -15.8°
Reaches altitude 10° 04:14:38 10° 21° (NNE) 2,302 6.6 -15.5°
Maximum altitude 04:19:38 58° 101° (E) 889 3.5 -14.8°
Drops below altitude 10° 04:24:35 10° 180° (S) 2,287 5.1 -14.2°
Enters shadow 04:24:39 10° 180° (S) 2,310 5.1 -14.2°
